KAZSAT-3

Last updated on Sun Jan 18 2026 00:02:47 GMT+0000 (Coordinated Universal Time)

1 39728U 14023B 26017.38138168 .00000077 00000+0 00000+0 0 9995 2 39728 0.0173 3.3669 0000292 98.7987 210.4162 1.00272007 40942
UTC large
Height (km)
Speed (km/s)
/
Latitude / Longitude
Inclination (degrees)
Orbital Period (minutes)
Azimuth
Elevation
Range (km)
Doppler Factor

Next 0 passes for location: London (51.5072 / 0.1276)

Sorry there are no passes over London.